Time,TemperatureF,DewpointF,PressureIn,WindDirection,WindDirectionDegrees,WindSpeedMPH,WindSpeedGustMPH,Humidity,HourlyPrecipIn,Conditions,Clouds,dailyrainin,SoftwareType,DateUTC
2013-02-03 00:03:00,47.1,26.9,29.82,North,5,0.0,0.0,45,0.00,,SKC,0.00,VWS V12.07,2013-02-03 08:03:00,
2013-02-03 01:02:00,47.0,26.2,29.79,North,5,3.0,4.0,44,0.00,,SKC,0.00,VWS V12.07,2013-02-03 09:02:00,
2013-02-03 02:03:00,43.6,32.6,29.78,North,5,4.0,4.0,65,0.02,,SKC,0.02,VWS V12.07,2013-02-03 10:03:00,
2013-02-03 03:00:00,42.3,31.4,29.76,North,5,2.0,5.0,65,0.00,,SKC,0.02,VWS V12.07,2013-02-03 11:00:00,
2013-02-03 04:02:00,44.5,27.5,29.75,North,5,3.0,5.0,51,0.00,,SKC,0.02,VWS V12.07,2013-02-03 12:02:00,
2013-02-03 06:03:00,41.8,35.1,29.74,NNW,331,1.0,11.0,77,0.00,,SKC,0.02,VWS V12.07,2013-02-03 14:03:00,
2013-02-03 07:03:00,42.3,36.9,29.75,WNW,293,16.0,18.0,81,0.00,,SKC,0.02,VWS V12.07,2013-02-03 15:03:00,
2013-02-03 08:02:00,42.9,37.2,29.75,NW,311,4.0,14.0,80,0.00,,SKC,0.02,VWS V12.07,2013-02-03 16:02:00,
2013-02-03 09:00:00,44.2,35.0,29.75,NW,325,5.0,7.0,70,0.00,,SKC,0.02,VWS V12.07,2013-02-03 17:00:00,
2013-02-03 10:00:00,47.4,37.0,29.75,NNW,340,3.0,9.0,67,0.00,,SKC,0.02,VWS V12.07,2013-02-03 18:00:00,
2013-02-03 11:03:00,50.1,38.4,29.73,NNW,331,5.0,9.0,64,0.00,,SKC,0.02,VWS V12.07,2013-02-03 19:03:00,
2013-02-03 12:03:00,50.2,36.0,29.71,NW,313,7.0,9.0,58,0.00,,SKC,0.02,VWS V12.07,2013-02-03 20:03:00,
2013-02-03 13:01:00,49.9,37.0,29.69,WNW,293,2.0,13.0,61,0.00,,SKC,0.02,VWS V12.07,2013-02-03 21:01:00,
2013-02-03 14:00:00,48.2,37.0,29.68,NNW,336,3.0,13.0,65,0.00,,SKC,0.02,VWS V12.07,2013-02-03 22:00:00,
2013-02-03 15:00:00,48.0,38.3,29.68,NNW,333,0.0,11.0,69,0.00,,SKC,0.02,VWS V12.07,2013-02-03 23:00:00,
2013-02-03 17:02:00,43.8,39.0,29.69,North,351,0.0,5.0,83,0.00,,SKC,0.02,VWS V12.07,2013-02-04 01:02:00,
2013-02-03 18:02:00,41.8,36.7,29.69,North,355,3.0,5.0,82,0.00,,SKC,0.02,VWS V12.07,2013-02-04 02:02:00,
2013-02-03 19:03:00,41.6,36.8,29.70,ENE,65,9.0,9.0,83,0.00,,SKC,0.02,VWS V12.07,2013-02-04 03:03:00,
2013-02-03 20:02:00,42.8,36.8,29.72,ENE,58,6.0,12.0,79,0.00,,SKC,0.02,VWS V12.07,2013-02-04 04:02:00,
2013-02-03 22:03:00,41.9,35.9,29.72,East,79,10.0,12.0,79,0.00,,SKC,0.02,VWS V12.07,2013-02-04 06:03:00,
2013-02-03 23:03:00,42.3,35.6,29.72,ENE,77,13.0,13.0,77,0.00,,SKC,0.02,VWS V12.07,2013-02-04 07:03:00,